Change the Weather History Date:

Friday, September 27, 2013

  Actual Average Record
Temperature  
Mean Temperature 68 °F -  
Max Temperature 78 °F 69 °F 88 °F (1974)
Min Temperature 57 °F 43 °F 26 °F (1984)
Cooling Degree Days 4    
Growing Degree Days 18 (Base 50)    
Moisture  
Dew Point 63 °F    
Average Humidity 78    
Maximum Humidity 100    
Minimum Humidity 57    
Precipitation  
Precipitation 0.07 in - - ()
Sea Level Pressure  
Sea Level Pressure 29.76 in    
Wind  
Wind Speed 9 mph (SSW)    
Max Wind Speed 20 mph    
Max Gust Speed 30 mph    
Visibility 10 miles    
Events Rain , Thunderstorm    
Averages and records for this station are not official NWS values.
T = Trace of Precipitation, MM = Missing Value Source: NWS Daily Summary

Daily Weather History Graph

Daily Weather History Graph

Search for Another Location

Airport or City:

Trip Planner

Search our weather history database for the weather conditions in past years. The results will help you decide how hot, cold, wet, or windy it might be!

Date:

Astronomy

Sep. 27, 2013 Rise Set
Actual Time 7:16 AM CDT 7:10 PM CDT
Civil Twilight 6:47 AM CDT 7:39 PM CDT
Nautical Twilight 6:12 AM CDT 8:13 PM CDT
Astronomical Twilight 5:38 AM CDT 8:48 PM CDT
Moon No Moon Rise 3:03 PM CDT (9/27)
Length of Visible Light 12h 52m
Length of Day
11h 54m
Last Quarter, 45% of the Moon is Illuminated
Sep 27
Last Quarter
Oct 4
New
Oct 11
First Quarter
Oct 18
Full
Oct 26
Last Quarter

Hourly Weather History & Observations

Time (CDT) Temp. Dew Point Humidity Pressure Visibility Wind Dir Wind Speed Gust Speed Precip Events Conditions
12:14 AM 71.6 °F 60.8 °F 69% 29.80 in 10.0 mi South 10.4 mph 16.1 mph N/A   Clear
12:33 AM 69.8 °F 60.8 °F 73% 29.81 in 10.0 mi North - - N/A   Clear
12:54 AM 69.8 °F 60.8 °F 73% 29.81 in 10.0 mi Calm Calm - N/A   Clear
1:14 AM 69.8 °F 60.8 °F 73% 29.81 in 10.0 mi South 9.2 mph - N/A   Clear
1:34 AM 69.8 °F 60.8 °F 73% 29.80 in 10.0 mi South 9.2 mph - N/A   Clear
1:54 AM 68.0 °F 60.8 °F 78% 29.80 in 10.0 mi South 10.4 mph - N/A   Scattered Clouds
2:13 AM 69.8 °F 60.8 °F 73% 29.80 in 10.0 mi South 10.4 mph - N/A   Mostly Cloudy
2:32 AM 69.8 °F 60.8 °F 73% 29.79 in 10.0 mi South 10.4 mph - N/A   Scattered Clouds
2:53 AM 69.8 °F 60.8 °F 73% 29.79 in 10.0 mi South 9.2 mph - N/A   Clear
3:14 AM 69.8 °F 60.8 °F 73% 29.78 in 10.0 mi South 10.4 mph - N/A   Clear
3:34 AM 69.8 °F 60.8 °F 73% 29.77 in 10.0 mi South 11.5 mph - N/A   Clear
3:53 AM 68.0 °F 60.8 °F 78% 29.76 in 10.0 mi South 10.4 mph - N/A   Clear
4:14 AM 68.0 °F 60.8 °F 78% 29.76 in 10.0 mi South 11.5 mph - N/A   Clear
4:34 AM 68.0 °F 60.8 °F 78% 29.76 in 10.0 mi South 9.2 mph - N/A   Clear
4:53 AM 69.8 °F 60.8 °F 73% 29.77 in 10.0 mi South 10.4 mph - N/A   Clear
5:14 AM 69.8 °F 60.8 °F 73% 29.78 in 10.0 mi SSW 10.4 mph - N/A   Mostly Cloudy
5:34 AM 69.8 °F 60.8 °F 73% 29.81 in 10.0 mi SW 8.1 mph - N/A Rain , Thunderstorm Rain
5:54 AM 66.2 °F 62.6 °F 88% 29.80 in 7.0 mi South 6.9 mph - 0.04 in Rain , Thunderstorm Rain
6:14 AM 66.2 °F 64.4 °F 94% 29.80 in 10.0 mi South 9.2 mph - 0.02 in Rain Light Rain
6:34 AM 66.2 °F 64.4 °F 94% 29.78 in 10.0 mi SSE 11.5 mph - 0.02 in Rain Light Rain
6:54 AM 64.4 °F 64.4 °F 100% 29.78 in 10.0 mi South 10.4 mph - 0.02 in   Mostly Cloudy
7:14 AM 66.2 °F 64.4 °F 94% 29.77 in 10.0 mi South 10.4 mph - N/A   Overcast
7:34 AM 66.2 °F 64.4 °F 94% 29.77 in 10.0 mi South 12.7 mph 18.4 mph N/A   Scattered Clouds
7:54 AM 66.2 °F 64.4 °F 94% 29.77 in 10.0 mi South 12.7 mph - N/A   Clear
8:14 AM 66.2 °F 64.4 °F 94% 29.78 in 10.0 mi South 13.8 mph - N/A   Clear
8:34 AM 66.2 °F 64.4 °F 94% 29.77 in 10.0 mi South 13.8 mph 19.6 mph N/A   Clear
8:54 AM 66.2 °F 64.4 °F 94% 29.77 in 10.0 mi South 12.7 mph 23.0 mph N/A   Clear
9:13 AM 68.0 °F 64.4 °F 88% 29.78 in 10.0 mi South 15.0 mph 20.7 mph N/A   Clear
9:34 AM 69.8 °F 64.4 °F 83% 29.77 in 10.0 mi South 16.1 mph 21.9 mph N/A   Clear
9:54 AM 69.8 °F 64.4 °F 83% 29.78 in 10.0 mi South 15.0 mph 24.2 mph N/A   Clear
10:13 AM 69.8 °F 64.4 °F 83% 29.78 in 10.0 mi SSW 11.5 mph 23.0 mph N/A Thunderstorm Thunderstorm
10:34 AM 68.0 °F 64.4 °F 88% 29.78 in 10.0 mi South 12.7 mph 21.9 mph 0.01 in   Mostly Cloudy
10:54 AM 69.8 °F 64.4 °F 83% 29.76 in 10.0 mi South 19.6 mph 27.6 mph 0.01 in   Scattered Clouds
11:14 AM 68.0 °F 64.4 °F 88% 29.74 in 10.0 mi South 16.1 mph 29.9 mph N/A   Light Drizzle
11:33 AM 68.0 °F 64.4 °F 88% 29.73 in 10.0 mi South 15.0 mph 19.6 mph N/A   Clear
11:54 AM 68.0 °F 64.4 °F 88% 29.75 in 10.0 mi South 11.5 mph 16.1 mph N/A Rain , Thunderstorm Light Thunderstorms and Rain
12:14 PM 68.0 °F 66.2 °F 94% 29.77 in 10.0 mi SSW 11.5 mph - N/A   Light Drizzle
12:34 PM 69.8 °F 66.2 °F 88% 29.75 in 10.0 mi South 10.4 mph - N/A Thunderstorm Clear
12:54 PM 71.6 °F 66.2 °F 83% 29.74 in 10.0 mi South 11.5 mph 16.1 mph N/A   Clear
1:14 PM 73.4 °F 68.0 °F 83% 29.73 in 10.0 mi South 11.5 mph 17.3 mph N/A   Clear
1:34 PM 75.2 °F 66.2 °F 73% 29.72 in 10.0 mi South 11.5 mph 20.7 mph N/A   Clear
1:54 PM 78.8 °F 64.4 °F 61% 29.72 in 10.0 mi SSW 8.1 mph 18.4 mph N/A   Clear
2:14 PM 78.8 °F 64.4 °F 61% 29.72 in 10.0 mi SSW 13.8 mph 19.6 mph N/A   Clear
2:34 PM 78.8 °F 64.4 °F 61% 29.72 in 10.0 mi SW 10.4 mph 18.4 mph N/A Rain Light Rain
2:54 PM 78.8 °F 62.6 °F 57% 29.72 in 10.0 mi SW 11.5 mph 26.5 mph N/A   Mostly Cloudy
3:14 PM 78.8 °F 64.4 °F 61% 29.73 in 10.0 mi WSW 10.4 mph 16.1 mph N/A Rain Light Rain
3:34 PM 77.0 °F 64.4 °F 65% 29.75 in 10.0 mi WSW 9.2 mph - N/A   Mostly Cloudy
3:54 PM 75.2 °F 64.4 °F 69% 29.74 in 10.0 mi SW 6.9 mph - N/A   Scattered Clouds
4:14 PM 75.2 °F 64.4 °F 69% 29.75 in 10.0 mi WSW 6.9 mph - N/A Rain Light Rain
4:34 PM 75.2 °F 64.4 °F 69% 29.73 in 10.0 mi SW 4.6 mph - N/A Rain Rain
4:54 PM 73.4 °F 64.4 °F 73% 29.72 in 10.0 mi South 6.9 mph - N/A   Clear
5:14 PM 73.4 °F 62.6 °F 69% 29.74 in 10.0 mi SSW 4.6 mph - N/A   Scattered Clouds
5:34 PM 73.4 °F 62.6 °F 69% 29.75 in 10.0 mi SW 5.8 mph - N/A   Scattered Clouds
5:54 PM 73.4 °F 62.6 °F 69% 29.76 in 10.0 mi SW 4.6 mph - N/A   Clear
6:14 PM 73.4 °F 62.6 °F 69% 29.75 in 10.0 mi SSW 3.5 mph - N/A   Clear
6:34 PM 73.4 °F 62.6 °F 69% 29.75 in 10.0 mi South 4.6 mph - N/A   Clear
6:54 PM 71.6 °F 64.4 °F 78% 29.74 in 10.0 mi SSE 6.9 mph - N/A   Clear
7:14 PM 71.6 °F 62.6 °F 73% 29.74 in 10.0 mi SSE 5.8 mph - N/A   Clear
7:34 PM 71.6 °F 64.4 °F 78% 29.73 in 10.0 mi South 8.1 mph - N/A   Scattered Clouds
7:54 PM 71.6 °F 62.6 °F 73% 29.73 in 10.0 mi South 6.9 mph - N/A   Scattered Clouds
8:14 PM 71.6 °F 62.6 °F 73% 29.73 in 10.0 mi South 8.1 mph - N/A   Scattered Clouds
8:34 PM 71.6 °F 62.6 °F 73% 29.73 in 10.0 mi South 5.8 mph - N/A   Scattered Clouds
8:54 PM 71.6 °F 62.6 °F 73% 29.74 in 10.0 mi South 3.5 mph - N/A   Clear
9:14 PM 71.6 °F 62.6 °F 73% 29.74 in 10.0 mi Calm Calm - N/A   Scattered Clouds
9:34 PM 71.6 °F 62.6 °F 73% 29.74 in 10.0 mi West 3.5 mph - N/A   Mostly Cloudy
9:54 PM 68.0 °F 62.6 °F 83% 29.75 in 10.0 mi Calm Calm - N/A   Scattered Clouds
10:14 PM 64.4 °F 60.8 °F 88% 29.75 in 10.0 mi NNW 6.9 mph - N/A   Scattered Clouds
10:34 PM 62.6 °F 59.0 °F 88% 29.74 in 10.0 mi North 8.1 mph - N/A   Scattered Clouds
10:54 PM 62.6 °F 57.2 °F 82% 29.76 in 10.0 mi NNW 8.1 mph - N/A   Scattered Clouds
11:14 PM 60.8 °F 55.4 °F 82% 29.76 in 10.0 mi North 11.5 mph - N/A   Mostly Cloudy
11:34 PM 59.0 °F 55.4 °F 88% 29.75 in 10.0 mi North 12.7 mph - N/A   Scattered Clouds
11:54 PM 57.2 °F 53.6 °F 88% 29.75 in 10.0 mi North 12.7 mph - N/A   Scattered Clouds